Time,TemperatureF,DewpointF,PressureIn,WindDirection,WindDirectionDegrees,WindSpeedMPH,WindSpeedGustMPH,Humidity,HourlyPrecipIn,Conditions,Clouds,dailyrainin,SoftwareType,DateUTC
2013-12-06 00:04:00,29.4,25.8,30.11,WNW,293,0.0,6.0,86,0.00,,,0.00,WUHU216HW,2013-12-06 05:04:00,
2013-12-06 00:09:00,29.1,25.4,30.12,WNW,293,8.5,8.5,86,0.00,,,0.00,WUHU216HW,2013-12-06 05:09:00,
2013-12-06 00:14:00,29.1,25.4,30.12,WNW,293,0.0,10.7,86,0.00,,,0.00,WUHU216HW,2013-12-06 05:14:00,
2013-12-06 00:19:00,28.9,25.2,30.12,WNW,293,0.0,10.7,86,0.00,,,0.00,WUHU216HW,2013-12-06 05:19:00,
2013-12-06 00:24:00,28.9,25.2,30.11,WNW,293,0.0,0.0,86,0.00,,,0.00,WUHU216HW,2013-12-06 05:24:00,
2013-12-06 00:29:00,28.7,25.0,30.10,WNW,293,3.1,6.4,86,0.00,,,0.00,WUHU216HW,2013-12-06 05:29:00,
2013-12-06 00:34:00,28.5,24.9,30.10,WNW,293,0.0,6.4,86,0.00,,,0.00,WUHU216HW,2013-12-06 05:34:00,
2013-12-06 00:39:00,28.4,24.9,30.09,WNW,293,3.3,8.5,86,0.00,,,0.00,WUHU216HW,2013-12-06 05:39:00,
2013-12-06 00:44:00,28.2,24.5,30.11,WNW,293,0.0,8.5,86,0.00,,,0.00,WUHU216HW,2013-12-06 05:44:00,
2013-12-06 00:49:00,28.0,24.3,30.12,WNW,293,0.0,5.5,86,0.00,,,0.00,WUHU216HW,2013-12-06 05:49:00,
2013-12-06 00:54:00,28.0,24.3,30.12,WNW,293,0.0,5.5,86,0.00,,,0.00,WUHU216HW,2013-12-06 05:54:00,
2013-12-06 00:59:00,28.0,24.3,30.11,WNW,293,2.9,2.9,86,0.00,,,0.00,WUHU216HW,2013-12-06 05:59:00,
2013-12-06 01:04:00,28.0,24.3,30.12,WNW,293,5.1,5.1,86,0.00,,,0.00,WUHU216HW,2013-12-06 06:04:00,
2013-12-06 01:09:00,27.6,24.0,30.12,WNW,293,6.2,6.2,86,0.00,,,0.00,WUHU216HW,2013-12-06 06:09:00,
2013-12-06 01:14:00,27.5,23.8,30.12,WNW,293,5.3,6.2,86,0.00,,,0.00,WUHU216HW,2013-12-06 06:14:00,
2013-12-06 01:19:00,27.3,23.6,30.11,WNW,293,0.0,6.2,86,0.00,,,0.00,WUHU216HW,2013-12-06 06:19:00,
2013-12-06 01:24:00,27.3,23.6,30.09,WNW,293,0.0,5.3,86,0.00,,,0.00,WUHU216HW,2013-12-06 06:24:00,
2013-12-06 01:29:00,27.3,23.6,30.08,WNW,293,5.1,5.1,86,0.00,,,0.00,WUHU216HW,2013-12-06 06:29:00,
2013-12-06 01:34:00,27.3,23.6,30.09,WNW,293,5.1,5.1,86,0.00,,,0.00,WUHU216HW,2013-12-06 06:34:00,
2013-12-06 01:39:00,27.1,23.4,30.08,WNW,293,0.0,5.5,86,0.00,,,0.00,WUHU216HW,2013-12-06 06:39:00,
2013-12-06 01:44:00,27.1,23.4,30.09,WNW,293,0.8,5.5,86,0.00,,,0.00,WUHU216HW,2013-12-06 06:44:00,
2013-12-06 01:49:00,27.1,23.4,30.09,WNW,293,0.0,5.5,86,0.00,,,0.00,WUHU216HW,2013-12-06 06:49:00,
2013-12-06 01:54:00,27.1,23.4,30.09,WNW,293,5.3,5.3,86,0.00,,,0.00,WUHU216HW,2013-12-06 06:54:00,
2013-12-06 01:59:00,27.1,23.4,30.10,WNW,293,0.0,5.3,86,0.00,,,0.00,WUHU216HW,2013-12-06 06:59:00,
2013-12-06 02:04:00,26.9,23.2,30.10,WNW,293,0.0,4.2,86,0.00,,,0.00,WUHU216HW,2013-12-06 07:04:00,
2013-12-06 02:09:00,26.9,23.2,30.12,WNW,293,0.0,0.0,86,0.00,,,0.00,WUHU216HW,2013-12-06 07:09:00,
2013-12-06 02:14:00,26.9,23.2,30.13,WNW,293,7.6,7.6,86,0.00,,,0.00,WUHU216HW,2013-12-06 07:14:00,
2013-12-06 02:19:00,26.9,23.2,30.13,WNW,293,0.0,7.6,86,0.00,,,0.00,WUHU216HW,2013-12-06 07:19:00,
2013-12-06 02:24:00,26.9,23.2,30.14,WNW,293,1.5,7.6,86,0.00,,,0.00,WUHU216HW,2013-12-06 07:24:00,
2013-12-06 02:29:00,26.7,23.1,30.13,WNW,293,0.0,5.1,86,0.00,,,0.00,WUHU216HW,2013-12-06 07:29:00,
2013-12-06 02:34:00,26.7,23.1,30.13,WNW,293,6.0,6.0,86,0.00,,,0.00,WUHU216HW,2013-12-06 07:34:00,
2013-12-06 02:39:00,26.7,23.1,30.14,WNW,293,0.0,6.0,86,0.00,,,0.00,WUHU216HW,2013-12-06 07:39:00,
2013-12-06 02:44:00,26.6,22.9,30.14,WNW,293,0.0,2.0,86,0.00,,,0.00,WUHU216HW,2013-12-06 07:44:00,
2013-12-06 02:49:00,26.6,22.9,30.13,WNW,293,0.0,2.0,86,0.00,,,0.00,WUHU216HW,2013-12-06 07:49:00,
2013-12-06 02:54:00,26.4,22.7,30.13,WNW,293,0.0,0.0,86,0.00,,,0.00,WUHU216HW,2013-12-06 07:54:00,
2013-12-06 02:59:00,26.4,22.7,30.13,WNW,293,0.0,7.8,86,0.00,,,0.00,WUHU216HW,2013-12-06 07:59:00,
2013-12-06 03:04:00,26.4,22.7,30.13,WNW,293,0.0,7.8,86,0.00,,,0.00,WUHU216HW,2013-12-06 08:04:00,
2013-12-06 03:09:00,26.2,22.5,30.12,WNW,293,0.0,0.0,86,0.00,,,0.00,WUHU216HW,2013-12-06 08:09:00,
2013-12-06 03:14:00,26.2,22.5,30.13,WNW,293,0.0,4.9,86,0.00,,,0.00,WUHU216HW,2013-12-06 08:14:00,
2013-12-06 03:19:00,26.2,22.5,30.13,WNW,293,0.0,4.9,86,0.00,,,0.00,WUHU216HW,2013-12-06 08:19:00,
2013-12-06 03:24:00,26.0,22.4,30.13,WNW,293,4.4,4.4,86,0.00,,,0.00,WUHU216HW,2013-12-06 08:24:00,
2013-12-06 03:29:00,26.0,22.4,30.12,WNW,293,0.0,4.4,86,0.00,,,0.00,WUHU216HW,2013-12-06 08:29:00,
2013-12-06 03:34:00,25.8,22.2,30.13,WNW,293,0.0,0.0,86,0.00,,,0.00,WUHU216HW,2013-12-06 08:34:00,
2013-12-06 03:39:00,26.0,22.4,30.14,WNW,293,0.0,0.0,86,0.00,,,0.00,WUHU216HW,2013-12-06 08:39:00,
2013-12-06 03:44:00,26.0,22.4,30.14,WNW,293,0.0,0.0,86,0.00,,,0.00,WUHU216HW,2013-12-06 08:44:00,
2013-12-06 03:49:00,25.8,22.2,30.14,WNW,293,0.0,2.4,86,0.00,,,0.00,WUHU216HW,2013-12-06 08:49:00,
2013-12-06 03:54:00,25.8,22.2,30.14,WNW,293,4.2,4.2,86,0.00,,,0.00,WUHU216HW,2013-12-06 08:54:00,
2013-12-06 03:59:00,25.8,22.2,30.14,WNW,293,2.6,6.4,86,0.00,,,0.00,WUHU216HW,2013-12-06 08:59:00,
2013-12-06 04:04:00,25.8,22.2,30.15,WNW,293,4.9,6.4,86,0.00,,,0.00,WUHU216HW,2013-12-06 09:04:00,
2013-12-06 04:09:00,25.8,22.2,30.15,WNW,293,0.0,4.9,86,0.00,,,0.00,WUHU216HW,2013-12-06 09:09:00,
2013-12-06 04:14:00,25.7,22.0,30.15,WNW,293,0.0,4.9,86,0.00,,,0.00,WUHU216HW,2013-12-06 09:14:00,
2013-12-06 04:19:00,25.7,22.0,30.15,WNW,293,0.0,4.2,86,0.00,,,0.00,WUHU216HW,2013-12-06 09:19:00,
2013-12-06 04:24:00,25.7,22.0,30.15,WNW,293,0.0,6.7,86,0.00,,,0.00,WUHU216HW,2013-12-06 09:24:00,
2013-12-06 04:29:00,25.7,22.0,30.14,WNW,293,0.8,6.7,86,0.00,,,0.00,WUHU216HW,2013-12-06 09:29:00,
2013-12-06 04:34:00,25.7,22.0,30.13,WNW,293,0.0,0.8,86,0.00,,,0.00,WUHU216HW,2013-12-06 09:34:00,
2013-12-06 04:39:00,25.5,21.8,30.13,WNW,293,0.0,4.2,86,0.00,,,0.00,WUHU216HW,2013-12-06 09:39:00,
2013-12-06 04:44:00,25.5,21.8,30.12,WNW,293,7.8,7.8,86,0.00,,,0.00,WUHU216HW,2013-12-06 09:44:00,
2013-12-06 04:49:00,25.3,21.7,30.11,WNW,293,1.3,7.8,86,0.00,,,0.00,WUHU216HW,2013-12-06 09:49:00,
2013-12-06 04:54:00,25.3,21.7,30.12,WNW,293,5.8,7.8,86,0.00,,,0.00,WUHU216HW,2013-12-06 09:54:00,
2013-12-06 04:59:00,25.3,21.7,30.13,WNW,293,0.0,5.8,86,0.00,,,0.00,WUHU216HW,2013-12-06 09:59:00,
2013-12-06 05:04:00,25.3,21.7,30.13,WNW,293,0.0,0.0,86,0.00,,,0.00,WUHU216HW,2013-12-06 10:04:00,
2013-12-06 05:09:00,25.3,21.7,30.13,WNW,293,5.8,5.8,86,0.00,,,0.00,WUHU216HW,2013-12-06 10:09:00,
2013-12-06 05:14:00,25.3,21.7,30.13,WNW,293,0.0,5.8,86,0.00,,,0.00,WUHU216HW,2013-12-06 10:14:00,
2013-12-06 05:19:00,25.3,21.7,30.12,WNW,293,4.2,4.2,86,0.00,,,0.00,WUHU216HW,2013-12-06 10:19:00,
2013-12-06 05:24:00,25.3,21.7,30.12,WNW,293,3.8,4.2,86,0.00,,,0.00,WUHU216HW,2013-12-06 10:24:00,
2013-12-06 05:29:00,25.1,21.5,30.11,WNW,293,4.9,4.9,86,0.00,,,0.00,WUHU216HW,2013-12-06 10:29:00,
2013-12-06 05:34:00,25.3,21.7,30.11,WNW,293,0.0,4.9,86,0.00,,,0.00,WUHU216HW,2013-12-06 10:34:00,
2013-12-06 05:39:00,25.3,21.7,30.10,WNW,293,0.0,4.9,86,0.00,,,0.00,WUHU216HW,2013-12-06 10:39:00,
2013-12-06 05:44:00,25.1,21.5,30.11,WNW,293,2.4,2.9,86,0.00,,,0.00,WUHU216HW,2013-12-06 10:44:00,
2013-12-06 05:49:00,25.1,21.5,30.10,WNW,293,0.0,2.9,86,0.00,,,0.00,WUHU216HW,2013-12-06 10:49:00,
2013-12-06 05:54:00,25.1,21.5,30.11,WNW,293,0.0,2.4,86,0.00,,,0.00,WUHU216HW,2013-12-06 10:54:00,
2013-12-06 05:59:00,25.1,21.5,30.11,WNW,293,5.1,5.1,86,0.00,,,0.00,WUHU216HW,2013-12-06 10:59:00,
2013-12-06 06:04:00,25.1,21.5,30.11,WNW,293,0.0,5.1,86,0.00,,,0.00,WUHU216HW,2013-12-06 11:04:00,
2013-12-06 06:09:00,25.1,21.5,30.11,WNW,293,0.0,5.1,86,0.00,,,0.00,WUHU216HW,2013-12-06 11:09:00,
2013-12-06 06:14:00,25.1,21.5,30.12,WNW,293,0.0,0.0,86,0.00,,,0.00,WUHU216HW,2013-12-06 11:14:00,
2013-12-06 06:19:00,25.1,21.5,30.13,WNW,293,0.0,5.3,86,0.00,,,0.00,WUHU216HW,2013-12-06 11:19:00,
2013-12-06 06:25:00,25.1,21.5,30.13,WNW,293,5.1,5.3,86,0.00,,,0.00,WUHU216HW,2013-12-06 11:25:00,
2013-12-06 06:30:00,25.1,21.5,30.14,WNW,293,4.6,5.1,86,0.00,,,0.00,WUHU216HW,2013-12-06 11:30:00,
2013-12-06 06:35:00,25.1,21.5,30.15,WNW,293,0.0,4.6,86,0.00,,,0.00,WUHU216HW,2013-12-06 11:35:00,
2013-12-06 06:40:00,25.1,21.5,30.14,WNW,293,0.0,4.6,86,0.00,,,0.00,WUHU216HW,2013-12-06 11:40:00,
2013-12-06 06:45:00,25.1,21.5,30.15,WNW,293,0.0,0.0,86,0.00,,,0.00,WUHU216HW,2013-12-06 11:45:00,
2013-12-06 06:50:00,25.1,21.5,30.15,WNW,293,0.0,5.3,86,0.00,,,0.00,WUHU216HW,2013-12-06 11:50:00,
2013-12-06 06:55:00,25.1,21.5,30.15,WNW,293,3.1,5.3,86,0.00,,,0.00,WUHU216HW,2013-12-06 11:55:00,
2013-12-06 07:00:00,25.1,21.5,30.15,WNW,293,1.7,3.1,86,0.00,,,0.00,WUHU216HW,2013-12-06 12:00:00,
2013-12-06 07:05:00,25.1,21.5,30.16,WNW,293,4.2,4.2,86,0.00,,,0.00,WUHU216HW,2013-12-06 12:05:00,
2013-12-06 07:10:00,25.1,21.5,30.16,WNW,293,4.6,4.6,86,0.00,,,0.00,WUHU216HW,2013-12-06 12:10:00,
2013-12-06 07:15:00,25.1,21.5,30.16,WNW,293,0.0,4.6,86,0.00,,,0.00,WUHU216HW,2013-12-06 12:15:00,
2013-12-06 07:20:00,25.1,21.5,30.16,WNW,293,2.6,2.6,86,0.00,,,0.00,WUHU216HW,2013-12-06 12:20:00,
2013-12-06 07:25:00,25.1,21.5,30.15,WNW,293,0.0,2.6,86,0.00,,,0.00,WUHU216HW,2013-12-06 12:25:00,
2013-12-06 07:30:00,25.1,21.5,30.15,WNW,293,0.0,2.6,86,0.00,,,0.00,WUHU216HW,2013-12-06 12:30:00,
2013-12-06 07:35:00,25.1,21.5,30.14,WNW,293,0.0,4.0,86,0.00,,,0.00,WUHU216HW,2013-12-06 12:35:00,
2013-12-06 07:40:00,25.1,21.5,30.14,WNW,293,0.0,4.0,86,0.00,,,0.00,WUHU216HW,2013-12-06 12:40:00,
2013-12-06 07:45:00,24.9,21.3,30.15,WNW,293,2.0,4.6,86,0.00,,,0.00,WUHU216HW,2013-12-06 12:45:00,
2013-12-06 07:50:00,24.9,21.3,30.15,WNW,293,4.9,5.1,86,0.00,,,0.00,WUHU216HW,2013-12-06 12:50:00,
2013-12-06 07:55:00,24.9,21.3,30.15,WNW,293,6.2,6.2,86,0.00,,,0.00,WUHU216HW,2013-12-06 12:55:00,
2013-12-06 08:00:00,24.9,21.3,30.15,WNW,293,4.2,6.2,86,0.00,,,0.00,WUHU216HW,2013-12-06 13:00:00,
2013-12-06 08:05:00,24.6,21.0,30.15,WNW,293,0.0,6.2,86,0.00,,,0.00,WUHU216HW,2013-12-06 13:05:00,
2013-12-06 08:10:00,24.6,21.0,30.15,WNW,293,0.0,10.7,86,0.00,,,0.00,WUHU216HW,2013-12-06 13:10:00,
2013-12-06 08:15:00,24.6,21.0,30.15,WNW,293,2.9,10.7,86,0.00,,,0.00,WUHU216HW,2013-12-06 13:15:00,
2013-12-06 08:20:00,24.6,21.0,30.16,WNW,293,0.0,6.2,86,0.00,,,0.00,WUHU216HW,2013-12-06 13:20:00,
2013-12-06 08:25:00,24.6,21.0,30.16,WNW,293,0.0,6.0,86,0.00,,,0.00,WUHU216HW,2013-12-06 13:25:00,
2013-12-06 08:30:00,24.6,21.0,30.17,WNW,293,0.0,6.0,86,0.00,,,0.00,WUHU216HW,2013-12-06 13:30:00,
2013-12-06 08:35:00,24.6,21.0,30.17,WNW,293,4.4,5.8,86,0.00,,,0.00,WUHU216HW,2013-12-06 13:35:00,
2013-12-06 08:40:00,24.4,20.8,30.16,WNW,293,0.0,4.4,86,0.00,,,0.00,WUHU216HW,2013-12-06 13:40:00,
2013-12-06 08:45:00,24.4,20.8,30.16,WNW,293,4.2,4.2,86,0.00,,,0.00,WUHU216HW,2013-12-06 13:45:00,
2013-12-06 08:50:00,24.6,21.0,30.16,WNW,293,0.0,6.2,86,0.00,,,0.00,WUHU216HW,2013-12-06 13:50:00,
2013-12-06 08:55:00,24.4,20.8,30.17,WNW,293,0.0,6.2,86,0.00,,,0.00,WUHU216HW,2013-12-06 13:55:00,
2013-12-06 09:00:00,24.6,21.0,30.17,WNW,293,0.0,6.2,86,0.00,,,0.00,WUHU216HW,2013-12-06 14:00:00,
2013-12-06 09:05:00,24.6,21.0,30.16,WNW,293,0.0,5.5,86,0.00,,,0.00,WUHU216HW,2013-12-06 14:05:00,
2013-12-06 09:10:00,24.6,21.0,30.16,WNW,293,0.0,0.0,86,0.00,,,0.00,WUHU216HW,2013-12-06 14:10:00,
2013-12-06 09:15:00,24.6,21.0,30.16,WNW,293,0.0,0.0,86,0.00,,,0.00,WUHU216HW,2013-12-06 14:15:00,
2013-12-06 09:20:00,24.6,21.0,30.16,WNW,293,0.0,0.0,86,0.00,,,0.00,WUHU216HW,2013-12-06 14:20:00,
2013-12-06 09:25:00,24.6,21.0,30.16,WNW,293,0.0,0.0,86,0.00,,,0.00,WUHU216HW,2013-12-06 14:25:00,
2013-12-06 09:30:00,24.6,21.0,30.17,WNW,293,0.0,0.0,86,0.00,,,0.00,WUHU216HW,2013-12-06 14:30:00,
2013-12-06 09:35:00,24.6,21.2,30.17,WNW,293,0.0,0.0,87,0.00,,,0.00,WUHU216HW,2013-12-06 14:35:00,
2013-12-06 09:40:00,24.6,21.2,30.18,WNW,293,0.0,0.0,87,0.00,,,0.00,WUHU216HW,2013-12-06 14:40:00,
2013-12-06 09:45:00,24.8,21.4,30.18,WNW,293,0.0,0.0,87,0.00,,,0.00,WUHU216HW,2013-12-06 14:45:00,
2013-12-06 09:50:00,24.6,21.2,30.18,WNW,293,0.0,0.0,87,0.00,,,0.00,WUHU216HW,2013-12-06 14:50:00,
2013-12-06 09:55:00,24.9,21.6,30.19,WNW,293,0.0,5.8,87,0.00,,,0.00,WUHU216HW,2013-12-06 14:55:00,
2013-12-06 10:00:00,24.9,21.6,30.19,WNW,293,0.0,5.8,87,0.00,,,0.00,WUHU216HW,2013-12-06 15:00:00,
2013-12-06 10:05:00,24.9,21.6,30.19,WNW,293,0.0,4.0,87,0.00,,,0.00,WUHU216HW,2013-12-06 15:05:00,
2013-12-06 10:10:00,24.9,21.6,30.19,WNW,293,0.0,2.0,87,0.00,,,0.00,WUHU216HW,2013-12-06 15:10:00,
2013-12-06 10:15:00,24.9,21.6,30.19,WNW,293,1.7,5.1,87,0.00,,,0.00,WUHU216HW,2013-12-06 15:15:00,
2013-12-06 10:20:00,24.9,21.6,30.19,WNW,293,5.8,5.8,87,0.00,,,0.00,WUHU216HW,2013-12-06 15:20:00,
2013-12-06 10:25:00,25.1,21.8,30.18,WNW,293,2.0,5.8,87,0.00,,,0.00,WUHU216HW,2013-12-06 15:25:00,
2013-12-06 10:30:00,25.1,21.8,30.19,WNW,293,4.6,5.1,87,0.00,,,0.00,WUHU216HW,2013-12-06 15:30:00,
2013-12-06 10:35:00,25.1,21.8,30.19,WNW,293,1.1,4.6,87,0.00,,,0.00,WUHU216HW,2013-12-06 15:35:00,
2013-12-06 10:40:00,25.1,21.8,30.19,WNW,293,6.4,8.2,87,0.00,,,0.00,WUHU216HW,2013-12-06 15:40:00,
2013-12-06 10:45:00,25.1,21.8,30.19,WNW,293,6.4,8.2,87,0.00,,,0.00,WUHU216HW,2013-12-06 15:45:00,
2013-12-06 10:50:00,25.1,21.8,30.20,WNW,293,0.0,6.4,87,0.00,,,0.00,WUHU216HW,2013-12-06 15:50:00,
2013-12-06 10:55:00,25.1,21.8,30.20,WNW,293,0.0,0.0,87,0.00,,,0.00,WUHU216HW,2013-12-06 15:55:00,
2013-12-06 11:00:00,25.1,21.8,30.20,WNW,293,0.0,0.0,87,0.00,,,0.00,WUHU216HW,2013-12-06 16:00:00,
2013-12-06 11:05:00,25.3,21.9,30.20,WNW,293,0.0,0.0,87,0.00,,,0.00,WUHU216HW,2013-12-06 16:05:00,
2013-12-06 11:10:00,25.3,21.9,30.19,WNW,293,0.0,0.0,87,0.00,,,0.00,WUHU216HW,2013-12-06 16:10:00,
2013-12-06 11:15:00,25.3,21.9,30.20,WNW,293,0.0,0.0,87,0.00,,,0.00,WUHU216HW,2013-12-06 16:15:00,
2013-12-06 11:20:00,25.5,22.1,30.20,WNW,293,0.2,0.2,87,0.00,,,0.00,WUHU216HW,2013-12-06 16:20:00,
2013-12-06 11:25:00,25.3,21.9,30.19,WNW,293,0.0,0.2,87,0.00,,,0.00,WUHU216HW,2013-12-06 16:25:00,
2013-12-06 11:30:00,25.5,22.1,30.19,WNW,293,4.0,4.6,87,0.00,,,0.00,WUHU216HW,2013-12-06 16:30:00,
2013-12-06 11:35:00,25.3,21.9,30.18,WNW,293,0.0,4.6,87,0.00,,,0.00,WUHU216HW,2013-12-06 16:35:00,
2013-12-06 11:40:00,25.3,21.9,30.18,WNW,293,0.0,8.0,87,0.00,,,0.00,WUHU216HW,2013-12-06 16:40:00,
2013-12-06 11:45:00,25.3,21.9,30.17,WNW,293,4.2,8.0,87,0.00,,,0.00,WUHU216HW,2013-12-06 16:45:00,
2013-12-06 11:50:00,25.3,21.9,30.17,WNW,293,0.0,5.1,87,0.00,,,0.00,WUHU216HW,2013-12-06 16:50:00,
2013-12-06 11:55:00,25.3,21.9,30.17,WNW,293,5.1,5.1,87,0.00,,,0.00,WUHU216HW,2013-12-06 16:55:00,
2013-12-06 12:00:00,25.5,22.1,30.16,WNW,293,0.0,6.0,87,0.00,,,0.00,WUHU216HW,2013-12-06 17:00:00,
2013-12-06 12:05:00,25.5,22.1,30.16,WNW,293,0.0,6.0,87,0.00,,,0.00,WUHU216HW,2013-12-06 17:05:00,
2013-12-06 12:10:00,25.3,21.9,30.17,WNW,293,4.0,7.1,87,0.00,,,0.00,WUHU216HW,2013-12-06 17:10:00,
2013-12-06 12:15:00,25.5,22.1,30.17,WNW,293,4.2,9.6,87,0.00,,,0.00,WUHU216HW,2013-12-06 17:15:00,
2013-12-06 12:20:00,25.5,22.1,30.17,WNW,293,4.9,9.6,87,0.00,,,0.00,WUHU216HW,2013-12-06 17:20:00,
2013-12-06 12:25:00,25.3,21.9,30.17,WNW,293,0.0,7.8,87,0.00,,,0.00,WUHU216HW,2013-12-06 17:25:00,
2013-12-06 12:30:00,25.5,22.1,30.17,WNW,293,0.0,0.0,87,0.00,,,0.00,WUHU216HW,2013-12-06 17:30:00,
2013-12-06 12:35:00,25.5,22.1,30.16,WNW,293,3.1,8.9,87,0.00,,,0.00,WUHU216HW,2013-12-06 17:35:00,
2013-12-06 12:40:00,25.5,22.1,30.16,WNW,293,3.8,8.9,87,0.00,,,0.00,WUHU216HW,2013-12-06 17:40:00,
2013-12-06 12:45:00,25.5,22.1,30.15,WNW,293,0.0,3.8,87,0.00,,,0.00,WUHU216HW,2013-12-06 17:45:00,
2013-12-06 12:50:00,25.5,22.1,30.15,WNW,293,0.0,3.8,87,0.00,,,0.00,WUHU216HW,2013-12-06 17:50:00,
2013-12-06 12:55:00,25.5,22.1,30.15,WNW,293,0.0,0.6,87,0.00,,,0.00,WUHU216HW,2013-12-06 17:55:00,
2013-12-06 13:00:00,25.5,22.1,30.15,WNW,293,5.3,5.3,87,0.00,,,0.00,WUHU216HW,2013-12-06 18:00:00,
2013-12-06 13:05:00,25.7,22.3,30.15,WNW,293,0.0,6.0,87,0.00,,,0.00,WUHU216HW,2013-12-06 18:05:00,
2013-12-06 13:10:00,25.7,22.3,30.15,WNW,293,1.5,6.0,87,0.00,,,0.00,WUHU216HW,2013-12-06 18:10:00,
2013-12-06 13:15:00,25.8,22.5,30.15,WNW,293,6.0,6.0,87,0.00,,,0.00,WUHU216HW,2013-12-06 18:15:00,
2013-12-06 13:20:00,25.8,22.5,30.16,WNW,293,4.4,6.0,87,0.00,,,0.00,WUHU216HW,2013-12-06 18:20:00,
2013-12-06 13:25:00,25.8,22.5,30.16,WNW,293,6.0,6.0,87,0.00,,,0.00,WUHU216HW,2013-12-06 18:25:00,
2013-12-06 13:30:00,25.8,22.5,30.16,WNW,293,0.0,6.0,87,0.00,,,0.00,WUHU216HW,2013-12-06 18:30:00,
2013-12-06 13:35:00,26.0,22.6,30.15,WNW,293,0.0,6.0,87,0.00,,,0.00,WUHU216HW,2013-12-06 18:35:00,
2013-12-06 13:40:00,25.8,22.5,30.15,WNW,293,0.0,5.5,87,0.00,,,0.00,WUHU216HW,2013-12-06 18:40:00,
2013-12-06 13:45:00,25.8,22.5,30.15,WNW,293,5.1,6.7,87,0.00,,,0.00,WUHU216HW,2013-12-06 18:45:00,
2013-12-06 13:50:00,26.0,22.6,30.16,WNW,293,5.1,6.7,87,0.00,,,0.00,WUHU216HW,2013-12-06 18:50:00,
2013-12-06 13:55:00,26.0,22.6,30.15,WNW,293,0.0,6.2,87,0.00,,,0.00,WUHU216HW,2013-12-06 18:55:00,
2013-12-06 14:00:00,26.2,22.8,30.14,WNW,293,0.0,6.2,87,0.00,,,0.00,WUHU216HW,2013-12-06 19:00:00,
2013-12-06 14:05:00,26.0,22.6,30.14,WNW,293,3.3,3.3,87,0.00,,,0.00,WUHU216HW,2013-12-06 19:05:00,
2013-12-06 14:10:00,26.0,22.6,30.14,WNW,293,3.1,5.8,87,0.00,,,0.00,WUHU216HW,2013-12-06 19:10:00,
2013-12-06 14:15:00,26.0,22.6,30.14,WNW,293,0.0,5.8,87,0.00,,,0.00,WUHU216HW,2013-12-06 19:15:00,
2013-12-06 14:20:00,26.0,22.6,30.15,WNW,293,1.3,4.0,87,0.00,,,0.00,WUHU216HW,2013-12-06 19:20:00,
2013-12-06 14:26:00,25.8,22.5,30.15,WNW,293,6.0,6.0,87,0.00,,,0.00,WUHU216HW,2013-12-06 19:26:00,
2013-12-06 14:31:00,26.0,22.6,30.14,WNW,293,11.6,11.6,87,0.00,,,0.00,WUHU216HW,2013-12-06 19:31:00,
2013-12-06 14:36:00,25.8,22.5,30.14,WNW,293,2.9,11.6,87,0.00,,,0.00,WUHU216HW,2013-12-06 19:36:00,
2013-12-06 14:41:00,25.8,22.5,30.14,WNW,293,3.1,4.0,87,0.00,,,0.00,WUHU216HW,2013-12-06 19:41:00,
2013-12-06 14:46:00,26.0,22.6,30.14,WNW,293,7.1,7.1,87,0.00,,,0.00,WUHU216HW,2013-12-06 19:46:00,
2013-12-06 14:51:00,25.8,22.5,30.14,WNW,293,5.3,7.1,87,0.00,,,0.00,WUHU216HW,2013-12-06 19:51:00,
2013-12-06 14:56:00,25.8,22.5,30.15,WNW,293,0.0,5.3,87,0.00,,,0.00,WUHU216HW,2013-12-06 19:56:00,
2013-12-06 15:01:00,25.8,22.5,30.14,WNW,293,1.3,4.6,87,0.00,,,0.00,WUHU216HW,2013-12-06 20:01:00,
2013-12-06 15:06:00,25.8,22.5,30.14,WNW,293,9.6,9.6,87,0.00,,,0.00,WUHU216HW,2013-12-06 20:06:00,
2013-12-06 15:11:00,25.7,22.3,30.14,WNW,293,0.0,9.6,87,0.00,,,0.00,WUHU216HW,2013-12-06 20:11:00,
2013-12-06 15:16:00,25.8,22.5,30.14,WNW,293,11.1,11.1,87,0.00,,,0.00,WUHU216HW,2013-12-06 20:16:00,
2013-12-06 15:21:00,25.7,22.3,30.15,WNW,293,0.6,11.1,87,0.00,,,0.00,WUHU216HW,2013-12-06 20:21:00,
2013-12-06 15:26:00,25.7,22.3,30.16,WNW,293,0.0,0.6,87,0.00,,,0.00,WUHU216HW,2013-12-06 20:26:00,
2013-12-06 15:31:00,25.7,22.3,30.16,WNW,293,0.0,0.8,87,0.00,,,0.00,WUHU216HW,2013-12-06 20:31:00,
2013-12-06 15:36:00,25.8,22.5,30.16,WNW,293,0.0,0.8,87,0.00,,,0.00,WUHU216HW,2013-12-06 20:36:00,
2013-12-06 15:41:00,25.8,22.5,30.17,WNW,293,0.0,0.0,87,0.00,,,0.00,WUHU216HW,2013-12-06 20:41:00,
2013-12-06 15:46:00,25.8,22.5,30.17,WNW,293,0.0,0.0,87,0.00,,,0.00,WUHU216HW,2013-12-06 20:46:00,
2013-12-06 15:51:00,25.8,22.5,30.17,WNW,293,2.9,6.4,87,0.00,,,0.00,WUHU216HW,2013-12-06 20:51:00,
2013-12-06 15:56:00,25.7,22.3,30.18,WNW,293,5.5,6.4,87,0.00,,,0.00,WUHU216HW,2013-12-06 20:56:00,
2013-12-06 16:01:00,25.7,22.3,30.18,WNW,293,0.0,5.5,87,0.00,,,0.00,WUHU216HW,2013-12-06 21:01:00,
2013-12-06 16:06:00,25.7,22.3,30.17,WNW,293,0.0,8.9,87,0.00,,,0.00,WUHU216HW,2013-12-06 21:06:00,
2013-12-06 16:11:00,25.5,22.1,30.16,WNW,293,0.2,8.9,87,0.00,,,0.00,WUHU216HW,2013-12-06 21:11:00,
2013-12-06 16:16:00,25.5,22.1,30.16,WNW,293,0.0,3.5,87,0.00,,,0.00,WUHU216HW,2013-12-06 21:16:00,
2013-12-06 16:21:00,25.5,22.1,30.16,WNW,293,5.5,5.5,87,0.00,,,0.00,WUHU216HW,2013-12-06 21:21:00,
2013-12-06 16:26:00,25.5,22.1,30.16,WNW,293,0.0,7.6,87,0.00,,,0.00,WUHU216HW,2013-12-06 21:26:00,
2013-12-06 16:31:00,25.5,22.1,30.16,WNW,293,0.0,7.6,87,0.00,,,0.00,WUHU216HW,2013-12-06 21:31:00,
2013-12-06 16:36:00,25.3,21.9,30.18,WNW,293,6.4,6.4,87,0.00,,,0.00,WUHU216HW,2013-12-06 21:36:00,
2013-12-06 16:41:00,25.3,21.9,30.17,WNW,293,8.2,8.2,87,0.00,,,0.00,WUHU216HW,2013-12-06 21:41:00,
2013-12-06 16:46:00,25.5,22.1,30.19,WNW,293,0.0,8.2,87,0.00,,,0.00,WUHU216HW,2013-12-06 21:46:00,
2013-12-06 16:51:00,25.5,21.9,30.19,WNW,293,0.0,8.2,87,0.00,,,0.00,WUHU216HW,2013-12-06 21:51:00,
2013-12-06 16:56:00,25.3,21.9,30.20,WNW,293,12.0,12.0,87,0.00,,,0.00,WUHU216HW,2013-12-06 21:56:00,
2013-12-06 17:01:00,25.3,21.9,30.19,WNW,293,0.4,12.0,87,0.00,,,0.00,WUHU216HW,2013-12-06 22:01:00,
2013-12-06 17:06:00,25.3,21.9,30.20,WNW,293,2.0,12.0,87,0.00,,,0.00,WUHU216HW,2013-12-06 22:06:00,
2013-12-06 17:11:00,25.3,21.9,30.21,WNW,293,0.0,2.0,87,0.00,,,0.00,WUHU216HW,2013-12-06 22:11:00,
2013-12-06 17:16:00,25.3,21.9,30.21,WNW,293,0.0,0.0,87,0.00,,,0.00,WUHU216HW,2013-12-06 22:16:00,
2013-12-06 17:21:00,25.3,21.9,30.21,WNW,293,0.0,0.0,87,0.00,,,0.00,WUHU216HW,2013-12-06 22:21:00,
2013-12-06 17:26:00,25.1,21.8,30.21,WNW,293,0.0,0.0,87,0.00,,,0.00,WUHU216HW,2013-12-06 22:26:00,
2013-12-06 17:31:00,25.1,21.8,30.20,WNW,293,0.0,3.8,87,0.00,,,0.00,WUHU216HW,2013-12-06 22:31:00,
2013-12-06 17:36:00,25.1,21.8,30.21,WNW,293,0.0,3.8,87,0.00,,,0.00,WUHU216HW,2013-12-06 22:36:00,
2013-12-06 17:41:00,25.1,21.8,30.22,WNW,293,6.4,6.4,87,0.00,,,0.00,WUHU216HW,2013-12-06 22:41:00,
2013-12-06 17:46:00,25.1,21.8,30.21,WNW,293,2.2,6.4,87,0.00,,,0.00,WUHU216HW,2013-12-06 22:46:00,
2013-12-06 17:51:00,25.1,21.8,30.20,WNW,293,0.0,6.4,87,0.00,,,0.00,WUHU216HW,2013-12-06 22:51:00,
2013-12-06 17:56:00,25.1,22.0,30.21,WNW,293,0.0,0.0,88,0.00,,,0.00,WUHU216HW,2013-12-06 22:56:00,
2013-12-06 18:01:00,25.1,21.8,30.20,WNW,293,0.0,0.0,87,0.00,,,0.00,WUHU216HW,2013-12-06 23:01:00,
2013-12-06 18:06:00,25.1,21.8,30.23,WNW,293,0.0,4.9,87,0.00,,,0.00,WUHU216HW,2013-12-06 23:06:00,
2013-12-06 18:11:00,25.1,21.8,30.24,WNW,293,1.3,4.9,87,0.00,,,0.00,WUHU216HW,2013-12-06 23:11:00,
2013-12-06 18:16:00,25.1,21.8,30.23,WNW,293,0.0,1.3,87,0.00,,,0.00,WUHU216HW,2013-12-06 23:16:00,
2013-12-06 18:21:00,25.1,21.8,30.21,WNW,293,0.0,4.6,87,0.00,,,0.00,WUHU216HW,2013-12-06 23:21:00,
2013-12-06 18:26:00,25.1,21.8,30.22,WNW,293,0.0,4.6,87,0.00,,,0.00,WUHU216HW,2013-12-06 23:26:00,
2013-12-06 18:31:00,25.1,21.8,30.23,WNW,293,0.0,4.2,87,0.00,,,0.00,WUHU216HW,2013-12-06 23:31:00,
2013-12-06 18:36:00,25.1,21.8,30.22,WNW,293,0.0,0.0,87,0.00,,,0.00,WUHU216HW,2013-12-06 23:36:00,
2013-12-06 18:41:00,25.1,21.8,30.22,WNW,293,0.0,0.0,87,0.00,,,0.00,WUHU216HW,2013-12-06 23:41:00,
2013-12-06 18:46:00,25.1,21.8,30.23,WNW,293,5.1,5.1,87,0.00,,,0.00,WUHU216HW,2013-12-06 23:46:00,
2013-12-06 18:51:00,25.1,21.8,30.24,WNW,293,2.9,8.5,87,0.00,,,0.00,WUHU216HW,2013-12-06 23:51:00,
2013-12-06 18:56:00,25.1,21.8,30.23,WNW,293,0.0,8.5,87,0.00,,,0.00,WUHU216HW,2013-12-06 23:56:00,
2013-12-06 19:01:00,24.9,21.6,30.24,WNW,293,0.0,2.9,87,0.00,,,0.00,WUHU216HW,2013-12-07 00:01:00,
2013-12-06 19:06:00,24.9,21.6,30.24,WNW,293,0.0,4.2,87,0.00,,,0.00,WUHU216HW,2013-12-07 00:06:00,
2013-12-06 19:11:00,24.9,21.6,30.24,WNW,293,5.5,5.5,87,0.00,,,0.00,WUHU216HW,2013-12-07 00:11:00,
2013-12-06 19:16:00,24.9,21.6,30.25,WNW,293,0.0,5.5,87,0.00,,,0.00,WUHU216HW,2013-12-07 00:16:00,
2013-12-06 19:21:00,24.9,21.6,30.25,WNW,293,0.0,5.5,87,0.00,,,0.00,WUHU216HW,2013-12-07 00:21:00,
2013-12-06 19:26:00,24.9,21.6,30.25,WNW,293,5.1,7.8,87,0.00,,,0.00,WUHU216HW,2013-12-07 00:26:00,
2013-12-06 19:31:00,24.9,21.6,30.25,WNW,293,1.3,7.8,87,0.00,,,0.00,WUHU216HW,2013-12-07 00:31:00,
2013-12-06 19:36:00,24.9,21.6,30.26,WNW,293,0.0,7.8,87,0.00,,,0.00,WUHU216HW,2013-12-07 00:36:00,
2013-12-06 19:41:00,24.9,21.6,30.26,WNW,293,0.0,7.8,87,0.00,,,0.00,WUHU216HW,2013-12-07 00:41:00,
2013-12-06 19:46:00,24.9,21.6,30.26,WNW,293,0.0,6.2,87,0.00,,,0.00,WUHU216HW,2013-12-07 00:46:00,
2013-12-06 19:51:00,24.9,21.6,30.26,WNW,293,0.0,0.0,87,0.00,,,0.00,WUHU216HW,2013-12-07 00:51:00,
2013-12-06 19:56:00,24.9,21.6,30.26,WNW,293,0.0,0.0,87,0.00,,,0.00,WUHU216HW,2013-12-07 00:56:00,
2013-12-06 20:01:00,24.9,21.6,30.26,WNW,293,0.0,0.0,87,0.00,,,0.00,WUHU216HW,2013-12-07 01:01:00,
2013-12-06 20:06:00,24.9,21.6,30.26,WNW,293,0.0,2.0,87,0.00,,,0.00,WUHU216HW,2013-12-07 01:06:00,
2013-12-06 20:11:00,24.9,21.6,30.27,WNW,293,0.0,2.0,87,0.00,,,0.00,WUHU216HW,2013-12-07 01:11:00,
2013-12-06 20:16:00,24.9,21.6,30.27,WNW,293,0.0,0.0,87,0.00,,,0.00,WUHU216HW,2013-12-07 01:16:00,
2013-12-06 20:21:00,24.8,21.6,30.26,WNW,293,0.0,3.5,87,0.00,,,0.00,WUHU216HW,2013-12-07 01:21:00,
2013-12-06 20:26:00,24.9,21.6,30.27,WNW,293,0.0,3.5,87,0.00,,,0.00,WUHU216HW,2013-12-07 01:26:00,
2013-12-06 20:31:00,24.8,21.4,30.27,WNW,293,4.6,4.6,87,0.00,,,0.00,WUHU216HW,2013-12-07 01:31:00,
2013-12-06 20:36:00,24.9,21.6,30.27,WNW,293,0.0,4.6,87,0.00,,,0.00,WUHU216HW,2013-12-07 01:36:00,
2013-12-06 20:41:00,24.8,21.4,30.27,WNW,293,1.3,6.2,87,0.00,,,0.00,WUHU216HW,2013-12-07 01:41:00,
2013-12-06 20:46:00,24.6,21.2,30.28,WNW,293,0.0,6.2,87,0.00,,,0.00,WUHU216HW,2013-12-07 01:46:00,
2013-12-06 20:51:00,24.6,21.2,30.28,WNW,293,4.4,4.4,87,0.00,,,0.00,WUHU216HW,2013-12-07 01:51:00,
2013-12-06 20:56:00,24.6,21.2,30.29,WNW,293,0.0,4.4,87,0.00,,,0.00,WUHU216HW,2013-12-07 01:56:00,
2013-12-06 21:01:00,24.6,21.2,30.29,WNW,293,0.0,0.0,87,0.00,,,0.00,WUHU216HW,2013-12-07 02:01:00,
2013-12-06 21:06:00,24.6,21.2,30.30,WNW,293,0.0,0.0,87,0.00,,,0.00,WUHU216HW,2013-12-07 02:06:00,
2013-12-06 21:11:00,24.6,21.2,30.30,WNW,293,4.0,4.0,87,0.00,,,0.00,WUHU216HW,2013-12-07 02:11:00,
2013-12-06 21:16:00,24.6,21.2,30.30,WNW,293,4.6,7.3,87,0.00,,,0.00,WUHU216HW,2013-12-07 02:16:00,
2013-12-06 21:21:00,24.6,21.2,30.30,WNW,293,0.0,7.3,87,0.00,,,0.00,WUHU216HW,2013-12-07 02:21:00,
2013-12-06 21:26:00,24.6,21.2,30.30,WNW,293,0.0,4.6,87,0.00,,,0.00,WUHU216HW,2013-12-07 02:26:00,
2013-12-06 21:31:00,24.6,21.2,30.30,WNW,293,0.0,4.0,87,0.00,,,0.00,WUHU216HW,2013-12-07 02:31:00,
2013-12-06 21:36:00,24.6,21.2,30.31,WNW,293,1.3,4.0,87,0.00,,,0.00,WUHU216HW,2013-12-07 02:36:00,
2013-12-06 21:41:00,24.6,21.2,30.31,WNW,293,4.2,4.9,87,0.00,,,0.00,WUHU216HW,2013-12-07 02:41:00,
2013-12-06 21:46:00,24.6,21.2,30.31,WNW,293,0.0,4.9,87,0.00,,,0.00,WUHU216HW,2013-12-07 02:46:00,
2013-12-06 21:51:00,24.6,21.2,30.32,WNW,293,0.0,1.3,87,0.00,,,0.00,WUHU216HW,2013-12-07 02:51:00,
2013-12-06 21:56:00,24.6,21.2,30.32,WNW,293,0.0,0.0,87,0.00,,,0.00,WUHU216HW,2013-12-07 02:56:00,
2013-12-06 22:01:00,24.6,21.2,30.32,WNW,293,0.0,4.0,87,0.00,,,0.00,WUHU216HW,2013-12-07 03:01:00,
2013-12-06 22:06:00,24.6,21.0,30.32,WNW,293,0.0,4.9,86,0.00,,,0.00,WUHU216HW,2013-12-07 03:06:00,
2013-12-06 22:11:00,24.6,21.0,30.32,WNW,293,0.0,4.9,86,0.00,,,0.00,WUHU216HW,2013-12-07 03:11:00,
2013-12-06 22:16:00,24.4,20.8,30.32,WNW,293,0.0,2.9,86,0.00,,,0.00,WUHU216HW,2013-12-07 03:16:00,
2013-12-06 22:21:00,24.4,20.8,30.32,WNW,293,0.0,5.8,86,0.00,,,0.00,WUHU216HW,2013-12-07 03:21:00,
2013-12-06 22:26:00,24.4,20.8,30.32,WNW,293,0.0,5.8,86,0.00,,,0.00,WUHU216HW,2013-12-07 03:26:00,
2013-12-06 22:31:00,24.4,20.8,30.33,WNW,293,0.0,0.0,86,0.00,,,0.00,WUHU216HW,2013-12-07 03:31:00,
2013-12-06 22:36:00,24.4,20.8,30.33,WNW,293,0.0,0.0,86,0.00,,,0.00,WUHU216HW,2013-12-07 03:36:00,
2013-12-06 22:41:00,24.4,20.8,30.33,WNW,293,0.0,0.0,86,0.00,,,0.00,WUHU216HW,2013-12-07 03:41:00,
2013-12-06 22:46:00,24.4,20.8,30.33,WNW,293,0.0,0.0,86,0.00,,,0.00,WUHU216HW,2013-12-07 03:46:00,
2013-12-06 22:51:00,24.4,20.8,30.33,WNW,293,0.0,4.2,86,0.00,,,0.00,WUHU216HW,2013-12-07 03:51:00,
2013-12-06 22:56:00,24.4,20.8,30.34,WNW,293,0.8,4.2,86,0.00,,,0.00,WUHU216HW,2013-12-07 03:56:00,
2013-12-06 23:01:00,24.4,20.8,30.34,WNW,293,1.5,8.7,86,0.00,,,0.00,WUHU216HW,2013-12-07 04:01:00,
2013-12-06 23:06:00,24.4,20.8,30.34,WNW,293,0.0,8.7,86,0.00,,,0.00,WUHU216HW,2013-12-07 04:06:00,
2013-12-06 23:11:00,24.4,20.8,30.34,WNW,293,0.0,1.5,86,0.00,,,0.00,WUHU216HW,2013-12-07 04:11:00,
2013-12-06 23:16:00,24.4,20.8,30.34,WNW,293,0.0,5.3,86,0.00,,,0.00,WUHU216HW,2013-12-07 04:16:00,
2013-12-06 23:21:00,24.4,20.8,30.34,WNW,293,0.0,5.3,86,0.00,,,0.00,WUHU216HW,2013-12-07 04:21:00,
2013-12-06 23:26:00,24.4,20.8,30.34,WNW,293,0.0,0.0,86,0.00,,,0.00,WUHU216HW,2013-12-07 04:26:00,
2013-12-06 23:31:00,24.0,20.4,30.34,WNW,293,4.0,4.4,86,0.00,,,0.00,WUHU216HW,2013-12-07 04:31:00,
2013-12-06 23:36:00,24.0,20.4,30.35,WNW,293,0.0,4.4,86,0.00,,,0.00,WUHU216HW,2013-12-07 04:36:00,
2013-12-06 23:41:00,24.0,20.4,30.35,WNW,293,0.0,4.0,86,0.00,,,0.00,WUHU216HW,2013-12-07 04:41:00,
2013-12-06 23:46:00,24.0,20.4,30.35,WNW,293,4.0,4.0,86,0.00,,,0.00,WUHU216HW,2013-12-07 04:46:00,
2013-12-06 23:51:00,24.0,20.4,30.34,WNW,293,4.0,4.0,86,0.00,,,0.00,WUHU216HW,2013-12-07 04:51:00,
2013-12-06 23:56:00,24.0,20.4,30.34,WNW,293,0.0,4.0,86,0.00,,,0.00,WUHU216HW,2013-12-07 04:56:00,